sat.trackr.live / text

‹ back to catalog

FLOCK 4H-3

NORAD 66706 · 2025-276AS

PAYLOAD ACTIVE UNKNOWN

§ Identity

Operator
Country
US
Launch date
2025-11-28
Launch site
AFWTR
Launch vehicle
Mass (kg)
RCS (m²)

Purposes: earth_obs

External: N2YO · Heavens-Above · Gunter

§ Orbital elements

Epoch: 2026-09-19T10:36:37.249056Z

Period
94.68 min
Inclination
97.4164°
Eccentricity
0.0004802
Mean motion
15.20939194 rev/d
Perigee alt
499.7 km
Apogee alt
506.3 km
Semi-major
6,881.1 km
B*
2.0214e-4
RAAN
334.6305°
Arg perigee
49.8385°
Mean anomaly
310.3270°
Rev number
4,474

§ Raw data

FLOCK 4H-31 66706U 25276AS  26262.44209779  .00004406  00000+0  20214-3 0  99922 66706  97.4164 334.6305 0004802  49.8385 310.3270 15.20939194 44741

JSON: /api/v1/satellites/66706 · /tle

For live sub-satellite position, see the globe view (requires WebGL).

§ Visibility from observer

Set your observer location to see the next 7 days of passes ≥ 10°. The values pass through the URL so the page stays shareable.

No JS? Fill the form by hand. The geolocation button needs JavaScript.